Location: Cazarilh
(42.9578°N, 0.5819°E)
Time: 19:53:16
(UTC+00:00)

YAOGAN 6 - Pass Details

Date: 11 December 2019
Orbit: 466 x 504 km, 97.0° (Epoch: 22 January)

Event Time Altitude Azimuth Distance (km) Brightness Sun altitude
Rises 06:37:04 0° 17° (NNE) 2,606 6.2 -7.5°
Reaches altitude 10° 06:39:12 10° 23° (NNE) 1,720 5.3 -7.2°
Maximum altitude 06:42:49 49° 99° (E) 659 3.8 -6.6°
Drops below altitude 10° 06:46:24 10° 175° (S) 1,711 5.8 -6.0°
Sets 06:48:31 0° 181° (S) 2,590 6.6 -5.6°
